Home > Weather > Bruck an der Mur > Past weeks

Flag for Austria Past Weather in Bruck an der Mur, Styria, Austria — Yesterday and Last 2 Weeks

Now
54 °F

Broken clouds.


Feels Like: 53 °F
Forecast: 47 / 72 °F
Wind: 3 mph from North

Location: Zeltweg

Current Time: May 24, 2016 at 1:51:44 PM

Latest Report: May 24, 2016 at 1:20 PM


Visibility: 7 mi

Pressure: 29.83 "Hg

Humidity: 67%

Dew Point: 43 °F

Location of Bruck an der MurLocation

Past Weather in Bruck an der Mur — Graph

°F

Bruck an der Mur Temperature Yesterday

Maximum temperature yesterday: 73 °F (at 12:20 PM)
Minimum temperature yesterday: 50 °F (at 4:50 AM)
Average temperature yesterday: 64 °F

High & Low Weather Summary for the Past Weeks

 TemperatureHumidityPressure
High79 °F (May 22, 2:20 PM)100% (May 12, 4:50 AM)30.21 "Hg (May 12, 4:50 AM)
Low34 °F (May 16, 5:50 AM)23% (May 21, 3:50 PM)29.39 "Hg (May 13, 5:50 AM)
Average56 °F64%29.87 "Hg
* Reported May 9 12:20 PM — May 24 12:50 PM, Bruck an der Mur, Weather by CustomWeather, © 2016

Note: Actual official high and low records may vary slightly from our data, if they occured in-between our weather recording intervals... More about our weather records

Advertising

Bruck an der Mur Weather History for the Previous 24 Hours

Scroll right to see more
 ConditionsComfort  
Time TempWeatherWind HumidityBarometerVisibility
12:50 PM
Tue, May 24
52 °FBroken clouds.2 mph77%29.83 "Hg7 mi
12:20 PM52 °FBroken clouds.3 mph77%29.83 "Hg6 mi
11:50 AM50 °FLight rain. Broken clouds.2 mph82%29.83 "Hg6 mi
11:20 AM50 °FLight rain. Partly sunny.2 mph82%29.83 "Hg6 mi
10:50 AM48 °FLight rain. Partly sunny.2 mph87%29.83 "Hg6 mi
10:20 AM48 °FLight rain. Partly sunny.1 mph82%29.80 "Hg6 mi
9:50 AM48 °FLight rain. Broken clouds.2 mph82%29.80 "Hg6 mi
9:20 AM46 °FLight rain. Broken clouds.1 mph87%29.80 "Hg6 mi
8:50 AM46 °FLight rain. Broken clouds.2 mph87%29.80 "Hg5 mi
8:20 AM46 °FLight rain. Broken clouds.3 mph93%29.80 "Hg5 mi
7:50 AM46 °FRain. Broken clouds.2 mph93%29.80 "Hg5 mi
7:20 AM45 °FRain. Broken clouds.1 mph93%29.80 "Hg4 mi
6:50 AM46 °FRain. More clouds than sun.3 mph93%29.80 "Hg4 mi
5:50 AM46 °FLight rain. Low clouds.5 mph87%29.74 "Hg6 mi
10:50 PM
Mon, May 23
55 °FOvercast.No wind88%29.74 "Hg6 mi
9:50 PM55 °FOvercast.2 mph88%29.77 "Hg12 mi
8:50 PM59 °FSprinkles. Partly sunny.3 mph68%29.77 "Hg12 mi
7:50 PM61 °FBroken clouds.2 mph59%29.77 "Hg19 mi
7:20 PM61 °FBroken clouds.2 mph63%29.77 "Hg19 mi
6:50 PM63 °FBroken clouds.3 mph56%29.77 "Hg19 mi
6:20 PM61 °FBroken clouds.2 mph59%29.77 "Hg19 mi
5:50 PM61 °FBroken clouds.3 mph63%29.77 "Hg19 mi
5:20 PM61 °FSprinkles. Broken clouds.9 mph68%29.80 "Hg19 mi
4:50 PM64 °FSprinkles. Broken clouds.14 mph52%29.80 "Hg16 mi
4:20 PM70 °FBroken clouds.13 mph35%29.77 "Hg19 mi
3:50 PM70 °FPartly sunny.12 mph38%29.77 "Hg22 mi
3:20 PM72 °FBroken clouds.9 mph36%29.77 "Hg22 mi
2:50 PM72 °FBroken clouds.10 mph33%29.77 "Hg25 mi
2:20 PM73 °FBroken clouds.15 mph31%29.77 "Hg25 mi
1:50 PM73 °FBroken clouds.14 mph31%29.77 "Hg25 mi
1:20 PM72 °FBroken clouds.14 mph33%29.77 "Hg25 mi
Weather by CustomWeather, © 2016

See weather overviewHow to use our weather pages